Location: Wald
(31.7579°N, 86.6655°W)
Time: 11:44:11
(UTC+00:00)

Hubble Space Telescope - Pass Details

Date: 14 July 2020
Orbit: 536 x 540 km, 28.5° (Epoch: 08 August)

Event Time Altitude Azimuth Distance (km) Brightness Sun altitude
Rises 03:19:28 0° 269° (W) 2,671 4.8 -25.3°
Reaches altitude 10° 03:21:49 10° 261° (W) 1,780 3.8 -25.6°
Enters shadow 03:23:25 21° 249° (WSW) 1,231 2.7 -25.8°
